Regional Weather Roundup
Issued by NWS

Home | Current Version | Previous Version | Graphics & Text | Print | Product List | Glossary On
Versions: 1 2 3 4 5 6 7 8 9 10 11 12 13 14 15 16 17 18 19 20 21 22 23 24 25 26 27 28 29 30 31 32 33 34 35 36 37 38 39 40 41 42 43 44 45 46 47 48 49 50
301
ASUS43 KLMK 301410
RWRKY
KENTUCKY REGIONAL WEATHER ROUNDUP
NATIONAL WEATHER SERVICE LOUISVILLE KY
1000 AM EDT FRI SEP 30 2016

NOTE "FAIR" INDICATES FEW OR NO CLOUDS BELOW 12,000 FEET
WITH NO SIGNIFICANT WEATHER AND/OR OBSTRUCTIONS TO VISIBILITY.

KYZ001>023-026-027-061>063-070>075-301500-
WESTERN AND SOUTH CENTRAL KENTUCKY

CITY           SKY/WX    TMP DP  RH WIND       PRES   REMARKS
PADUCAH        CLOUDY    62  56  80 W5        30.07R
HENDERSON      CLOUDY    59  55  88 W6        30.03R
OWENSBORO      PTSUNNY  N/A N/A N/A NW9       30.02S FOG
HOPKINSVILLE   CLOUDY    59  57  94 W9        30.05S
BOWLING GREEN  LGT RAIN  53  52  96 S3        30.05S FOG
GLASGOW        RAIN      51  51 100 CALM      30.05S
$$

KYZ024-025-028>034-038-045-046-053-301500-
NORTH CENTRAL KENTUCKY

CITY           SKY/WX    TMP DP  RH WIND       PRES   REMARKS
LOUISVILLE/SDF LGT RAIN  57  53  86 S5        30.04R
LOUISVILLE/LOU LGT RAIN  57  54  89 CALM      30.05R FOG
FORT KNOX      LGT RAIN  53  53  99 NE3       30.03R FOG
$$

KYZ035>037-039>044-047>052-055>060-089>105-301500-
NORTHEAST KENTUCKY

CITY           SKY/WX    TMP DP  RH WIND       PRES   REMARKS
LEXINGTON      CLOUDY    55  52  89 W6        30.05R FOG
COVINGTON      NOT AVBL
FRANKFORT      CLOUDY    57  53  86 CALM      30.03S
$$

KYZ054-064>069-076>088-106>120-301500-
SOUTHEAST KENTUCKY

CITY           SKY/WX    TMP DP  RH WIND       PRES   REMARKS
JACKSON        FOG       53  53 100 CALM      30.05R VSB<1/4
LONDON         CLOUDY    51  49  92 SW3       30.07R FOG
SOMERSET       CLOUDY    52  52 100 SW6       30.08R
MIDDLESBORO    MOSUNNY   55  50  84 CALM      30.07R
MONTICELLO     CLOUDY    53  52  96 NW8       30.09R
$$





USA.gov is the U.S. government's official web portal to all federal, state and local government web resources and services.